Time,TemperatureF,DewpointF,PressureIn,WindDirection,WindDirectionDegrees,WindSpeedMPH,WindSpeedGustMPH,Humidity,HourlyPrecipIn,Conditions,Clouds,dailyrainin,SolarRadiationWatts/m^2,SoftwareType,DateUTC
2013-03-16 00:01:00,64.3,14.0,29.77,SW,229,0.0,0.0,14,0.00,,,0.00,0,weatherlink.com 1.10,2013-03-16 06:01:00,
2013-03-16 00:16:00,63.9,14.0,29.76,SW,229,0.0,0.0,14,0.00,,,0.00,0,weatherlink.com 1.10,2013-03-16 06:16:00,
2013-03-16 00:32:00,63.7,13.0,29.76,SW,229,0.0,0.0,14,0.00,,,0.00,0,weatherlink.com 1.10,2013-03-16 06:32:00,
2013-03-16 00:47:00,63.6,13.0,29.75,SW,229,0.0,0.0,14,0.00,,,0.00,0,weatherlink.com 1.10,2013-03-16 06:47:00,
2013-03-16 01:02:00,63.3,15.0,29.75,SW,229,0.0,0.0,15,0.00,,,0.00,0,weatherlink.com 1.10,2013-03-16 07:02:00,
2013-03-16 01:17:00,63.0,14.0,29.75,SW,229,0.0,0.0,15,0.00,,,0.00,0,weatherlink.com 1.10,2013-03-16 07:17:00,
2013-03-16 01:32:00,62.6,14.0,29.75,SW,229,1.0,2.0,15,0.00,,,0.00,0,weatherlink.com 1.10,2013-03-16 07:32:00,
2013-03-16 01:47:00,62.9,14.0,29.75,SW,229,0.0,2.0,15,0.00,,,0.00,0,weatherlink.com 1.10,2013-03-16 07:47:00,
2013-03-16 02:02:00,62.8,14.0,29.75,SW,229,0.0,0.0,15,0.00,,,0.00,0,weatherlink.com 1.10,2013-03-16 08:02:00,
2013-03-16 02:17:00,62.9,14.0,29.75,SW,229,0.0,0.0,15,0.00,,,0.00,0,weatherlink.com 1.10,2013-03-16 08:17:00,
2013-03-16 02:32:00,62.2,14.0,29.75,SW,229,0.0,0.0,15,0.00,,,0.00,0,weatherlink.com 1.10,2013-03-16 08:32:00,
2013-03-16 02:47:00,61.3,15.0,29.75,SW,229,0.0,0.0,16,0.00,,,0.00,0,weatherlink.com 1.10,2013-03-16 08:47:00,
2013-03-16 03:02:00,61.4,15.0,29.74,SW,229,0.0,0.0,16,0.00,,,0.00,0,weatherlink.com 1.10,2013-03-16 09:02:00,
2013-03-16 03:17:00,63.6,15.0,29.74,SW,229,2.0,4.0,15,0.00,,,0.00,0,weatherlink.com 1.10,2013-03-16 09:17:00,
2013-03-16 03:32:00,64.9,16.0,29.73,SW,229,0.0,4.0,15,0.00,,,0.00,0,weatherlink.com 1.10,2013-03-16 09:32:00,
2013-03-16 03:47:00,64.4,16.0,29.73,SW,229,0.0,2.0,15,0.00,,,0.00,0,weatherlink.com 1.10,2013-03-16 09:47:00,
2013-03-16 04:02:00,63.5,15.0,29.73,SW,229,0.0,0.0,15,0.00,,,0.00,0,weatherlink.com 1.10,2013-03-16 10:02:00,
2013-03-16 04:17:00,62.4,15.0,29.73,SW,229,0.0,1.0,16,0.00,,,0.00,0,weatherlink.com 1.10,2013-03-16 10:17:00,
2013-03-16 04:32:00,61.7,15.0,29.73,SW,229,0.0,0.0,16,0.00,,,0.00,0,weatherlink.com 1.10,2013-03-16 10:32:00,
2013-03-16 04:47:00,60.6,17.0,29.73,SW,229,1.0,3.0,18,0.00,,,0.00,0,weatherlink.com 1.10,2013-03-16 10:47:00,
2013-03-16 05:02:00,61.5,16.0,29.73,SW,229,2.0,2.0,17,0.00,,,0.00,0,weatherlink.com 1.10,2013-03-16 11:02:00,
2013-03-16 05:17:00,59.6,14.0,29.73,SW,229,0.0,2.0,17,0.00,,,0.00,0,weatherlink.com 1.10,2013-03-16 11:17:00,
2013-03-16 05:32:00,58.5,14.0,29.73,SW,229,0.0,2.0,17,0.00,,,0.00,0,weatherlink.com 1.10,2013-03-16 11:32:00,
2013-03-16 05:47:00,57.9,14.0,29.73,SW,229,0.0,1.0,18,0.00,,,0.00,0,weatherlink.com 1.10,2013-03-16 11:47:00,
2013-03-16 06:04:00,57.4,14.0,29.74,SW,229,0.0,3.0,18,0.00,,,0.00,0,weatherlink.com 1.10,2013-03-16 12:04:00,
2013-03-16 06:17:00,56.8,15.0,29.74,SW,229,0.0,1.0,19,0.00,,,0.00,0,weatherlink.com 1.10,2013-03-16 12:17:00,
2013-03-16 06:32:00,56.2,14.0,29.74,SW,229,0.0,1.0,19,0.00,,,0.00,0,weatherlink.com 1.10,2013-03-16 12:32:00,
2013-03-16 06:47:00,55.6,14.0,29.74,SW,229,0.0,0.0,19,0.00,,,0.00,0,weatherlink.com 1.10,2013-03-16 12:47:00,
2013-03-16 07:02:00,55.1,15.0,29.74,SW,229,0.0,0.0,20,0.00,,,0.00,0,weatherlink.com 1.10,2013-03-16 13:02:00,
2013-03-16 07:17:00,54.6,15.0,29.74,SW,229,0.0,0.0,21,0.00,,,0.00,7,weatherlink.com 1.10,2013-03-16 13:17:00,
2013-03-16 07:32:00,54.7,15.0,29.75,SW,229,0.0,3.0,21,0.00,,,0.00,23,weatherlink.com 1.10,2013-03-16 13:32:00,
2013-03-16 07:47:00,55.8,17.0,29.75,SW,229,0.0,2.0,22,0.00,,,0.00,53,weatherlink.com 1.10,2013-03-16 13:47:00,
2013-03-16 08:02:00,61.1,20.0,29.74,SW,234,9.0,12.0,20,0.00,,,0.00,79,weatherlink.com 1.10,2013-03-16 14:02:00,
2013-03-16 08:17:00,62.0,20.0,29.74,SW,236,4.0,10.0,20,0.00,,,0.00,90,weatherlink.com 1.10,2013-03-16 14:17:00,
2013-03-16 08:32:00,62.2,20.0,29.74,WSW,237,5.0,10.0,20,0.00,,,0.00,98,weatherlink.com 1.10,2013-03-16 14:32:00,
2013-03-16 08:48:00,62.5,21.0,29.74,SW,234,4.0,10.0,20,0.00,,,0.00,77,weatherlink.com 1.10,2013-03-16 14:48:00,
2013-03-16 09:03:00,62.9,21.0,29.75,SW,236,2.0,7.0,20,0.00,,,0.00,315,weatherlink.com 1.10,2013-03-16 15:03:00,
2013-03-16 09:18:00,64.3,21.0,29.75,SW,233,1.0,8.0,19,0.00,,,0.00,334,weatherlink.com 1.10,2013-03-16 15:18:00,
2013-03-16 09:33:00,66.4,21.0,29.75,SW,233,1.0,8.0,18,0.00,,,0.00,452,weatherlink.com 1.10,2013-03-16 15:33:00,
2013-03-16 09:48:00,67.9,21.0,29.75,SW,230,6.0,11.0,17,0.00,,,0.00,506,weatherlink.com 1.10,2013-03-16 15:48:00,
2013-03-16 10:03:00,69.6,23.0,29.75,SW,228,4.0,13.0,17,0.00,,,0.00,545,weatherlink.com 1.10,2013-03-16 16:03:00,
2013-03-16 10:18:00,70.3,23.0,29.75,SW,236,9.0,17.0,17,0.00,,,0.00,592,weatherlink.com 1.10,2013-03-16 16:18:00,
2013-03-16 10:33:00,71.4,23.0,29.74,WSW,238,7.0,15.0,16,0.00,,,0.00,577,weatherlink.com 1.10,2013-03-16 16:33:00,
2013-03-16 10:48:00,71.9,23.0,29.74,SW,232,1.0,14.0,16,0.00,,,0.00,547,weatherlink.com 1.10,2013-03-16 16:48:00,
2013-03-16 11:03:00,73.4,24.0,29.74,WSW,238,3.0,17.0,16,0.00,,,0.00,707,weatherlink.com 1.10,2013-03-16 17:03:00,
2013-03-16 11:18:00,75.8,25.0,29.74,WSW,245,8.0,16.0,15,0.00,,,0.00,914,weatherlink.com 1.10,2013-03-16 17:18:00,
2013-03-16 11:33:00,76.4,25.0,29.74,WSW,254,7.0,12.0,15,0.00,,,0.00,780,weatherlink.com 1.10,2013-03-16 17:33:00,
2013-03-16 11:48:00,76.2,25.0,29.74,WSW,244,3.0,11.0,15,0.00,,,0.00,714,weatherlink.com 1.10,2013-03-16 17:48:00,
2013-03-16 12:03:00,78.2,25.0,29.73,West,264,2.0,7.0,14,0.00,,,0.00,461,weatherlink.com 1.10,2013-03-16 18:03:00,
2013-03-16 12:18:00,77.7,25.0,29.72,West,264,1.0,6.0,14,0.00,,,0.00,418,weatherlink.com 1.10,2013-03-16 18:18:00,
2013-03-16 12:33:00,78.7,26.0,29.71,West,259,3.0,10.0,14,0.00,,,0.00,817,weatherlink.com 1.10,2013-03-16 18:33:00,
2013-03-16 12:48:00,79.4,24.0,29.70,SW,226,9.0,10.0,13,0.00,,,0.00,895,weatherlink.com 1.10,2013-03-16 18:48:00,
2013-03-16 13:03:00,80.8,21.0,29.69,WSW,242,4.0,15.0,11,0.00,,,0.00,984,weatherlink.com 1.10,2013-03-16 19:03:00,
2013-03-16 13:19:00,81.8,22.0,29.68,WSW,245,1.0,16.0,11,0.00,,,0.00,765,weatherlink.com 1.10,2013-03-16 19:19:00,
2013-03-16 13:34:00,80.4,25.0,29.67,West,277,4.0,19.0,13,0.00,,,0.00,977,weatherlink.com 1.10,2013-03-16 19:34:00,
2013-03-16 13:49:00,81.8,24.0,29.66,West,268,2.0,17.0,12,0.00,,,0.00,947,weatherlink.com 1.10,2013-03-16 19:49:00,
2013-03-16 14:04:00,83.2,23.0,29.65,West,260,6.0,16.0,11,0.00,,,0.00,793,weatherlink.com 1.10,2013-03-16 20:04:00,
2013-03-16 14:19:00,82.4,23.0,29.64,WSW,253,6.0,16.0,11,0.00,,,0.00,858,weatherlink.com 1.10,2013-03-16 20:19:00,
2013-03-16 14:34:00,82.0,22.0,29.63,WSW,237,6.0,18.0,11,0.00,,,0.00,846,weatherlink.com 1.10,2013-03-16 20:34:00,
2013-03-16 15:04:00,84.2,22.0,29.62,WSW,240,6.0,13.0,10,0.00,,,0.00,758,weatherlink.com 1.10,2013-03-16 21:04:00,
2013-03-16 15:19:00,83.6,24.0,29.60,SW,219,11.0,15.0,11,0.00,,,0.00,721,weatherlink.com 1.10,2013-03-16 21:19:00,
2013-03-16 15:34:00,84.1,22.0,29.59,West,277,4.0,18.0,10,0.00,,,0.00,675,weatherlink.com 1.10,2013-03-16 21:34:00,
2013-03-16 15:49:00,85.2,20.0,29.59,SW,232,15.0,17.0,9,0.00,,,0.00,635,weatherlink.com 1.10,2013-03-16 21:49:00,
2013-03-16 16:04:00,84.5,17.0,29.58,WSW,248,14.0,15.0,8,0.00,,,0.00,596,weatherlink.com 1.10,2013-03-16 22:04:00,
2013-03-16 16:19:00,84.2,17.0,29.57,WSW,237,8.0,20.0,8,0.00,,,0.00,543,weatherlink.com 1.10,2013-03-16 22:19:00,
2013-03-16 16:34:00,84.9,14.0,29.57,WNW,288,5.0,17.0,7,0.00,,,0.00,506,weatherlink.com 1.10,2013-03-16 22:34:00,
2013-03-16 16:49:00,83.6,19.0,29.57,WSW,254,3.0,18.0,9,0.00,,,0.00,462,weatherlink.com 1.10,2013-03-16 22:49:00,
2013-03-16 17:04:00,83.6,16.0,29.56,WSW,237,6.0,18.0,8,0.00,,,0.00,417,weatherlink.com 1.10,2013-03-16 23:04:00,
2013-03-16 17:19:00,84.6,17.0,29.55,WSW,253,10.0,16.0,8,0.00,,,0.00,366,weatherlink.com 1.10,2013-03-16 23:19:00,
2013-03-16 17:34:00,83.3,16.0,29.55,West,267,3.0,16.0,8,0.00,,,0.00,183,weatherlink.com 1.10,2013-03-16 23:34:00,
2013-03-16 17:49:00,83.1,16.0,29.55,SW,219,11.0,16.0,8,0.00,,,0.00,160,weatherlink.com 1.10,2013-03-16 23:49:00,
2013-03-16 18:04:00,82.5,15.0,29.56,WSW,238,3.0,12.0,8,0.00,,,0.00,134,weatherlink.com 1.10,2013-03-17 00:04:00,
2013-03-16 18:34:00,80.4,16.0,29.56,WSW,249,9.0,11.0,9,0.00,,,0.00,37,weatherlink.com 1.10,2013-03-17 00:34:00,
2013-03-16 18:49:00,79.7,16.0,29.56,WNW,287,2.0,6.0,9,0.00,,,0.00,28,weatherlink.com 1.10,2013-03-17 00:49:00,
2013-03-16 19:04:00,79.1,18.0,29.57,WNW,288,4.0,9.0,10,0.00,,,0.00,12,weatherlink.com 1.10,2013-03-17 01:04:00,
2013-03-16 19:19:00,78.7,18.0,29.57,WNW,286,5.0,8.0,10,0.00,,,0.00,0,weatherlink.com 1.10,2013-03-17 01:19:00,
2013-03-16 19:34:00,78.0,17.0,29.57,WNW,288,0.0,10.0,10,0.00,,,0.00,0,weatherlink.com 1.10,2013-03-17 01:34:00,
2013-03-16 19:49:00,77.3,19.0,29.58,WNW,289,0.0,11.0,11,0.00,,,0.00,0,weatherlink.com 1.10,2013-03-17 01:49:00,
2013-03-16 20:04:00,76.8,18.0,29.59,West,281,0.0,5.0,11,0.00,,,0.00,0,weatherlink.com 1.10,2013-03-17 02:04:00,
2013-03-16 20:19:00,76.1,18.0,29.59,West,281,0.0,9.0,11,0.00,,,0.00,0,weatherlink.com 1.10,2013-03-17 02:19:00,
2013-03-16 20:34:00,75.5,19.0,29.59,West,281,1.0,4.0,12,0.00,,,0.00,0,weatherlink.com 1.10,2013-03-17 02:34:00,
2013-03-16 20:49:00,75.3,19.0,29.59,WNW,283,1.0,4.0,12,0.00,,,0.00,0,weatherlink.com 1.10,2013-03-17 02:49:00,
2013-03-16 21:04:00,74.8,19.0,29.59,WNW,282,1.0,3.0,12,0.00,,,0.00,0,weatherlink.com 1.10,2013-03-17 03:04:00,
2013-03-16 21:19:00,74.8,19.0,29.60,WNW,283,1.0,3.0,12,0.00,,,0.00,0,weatherlink.com 1.10,2013-03-17 03:19:00,
2013-03-16 21:34:00,74.4,20.0,29.60,WNW,283,2.0,8.0,13,0.00,,,0.00,0,weatherlink.com 1.10,2013-03-17 03:34:00,
2013-03-16 21:49:00,74.3,20.0,29.61,WNW,283,4.0,6.0,13,0.00,,,0.00,0,weatherlink.com 1.10,2013-03-17 03:49:00,
2013-03-16 22:04:00,73.7,20.0,29.61,WNW,283,1.0,3.0,13,0.00,,,0.00,0,weatherlink.com 1.10,2013-03-17 04:04:00,
2013-03-16 22:19:00,72.7,21.0,29.62,WNW,283,0.0,2.0,14,0.00,,,0.00,0,weatherlink.com 1.10,2013-03-17 04:19:00,
2013-03-16 22:34:00,71.7,20.0,29.62,WNW,283,0.0,0.0,14,0.00,,,0.00,0,weatherlink.com 1.10,2013-03-17 04:34:00,
2013-03-16 22:49:00,70.5,21.0,29.63,WNW,283,0.0,1.0,15,0.00,,,0.00,0,weatherlink.com 1.10,2013-03-17 04:49:00,
2013-03-16 23:04:00,69.7,20.0,29.63,WNW,283,0.0,0.0,15,0.00,,,0.00,0,weatherlink.com 1.10,2013-03-17 05:04:00,
2013-03-16 23:34:00,69.2,20.0,29.63,WNW,283,1.0,4.0,15,0.00,,,0.00,0,weatherlink.com 1.10,2013-03-17 05:34:00,
2013-03-16 23:49:00,68.5,19.0,29.63,WNW,283,0.0,4.0,15,0.00,,,0.00,0,weatherlink.com 1.10,2013-03-17 05:49:00,